owner,sensor,date,latitude,longitude,vertical_datum,sea_water_practical_salinity,qcFlag 
SCCF RECON,ioos:station:SCCF:13:1,2019-02-01T05:00:00Z,26.5255,-82.0032,2.45,28.4,1111122 
SCCF RECON,ioos:station:SCCF:13:1,2019-02-01T06:00:00Z,26.5255,-82.0032,2.37,28.11,1111122 
SCCF RECON,ioos:station:SCCF:13:1,2019-02-01T07:00:00Z,26.5255,-82.0032,2.26,25.11,1111122 
SCCF RECON,ioos:station:SCCF:13:1,2019-02-01T08:00:00Z,26.5255,-82.0032,2.16,16.76,1111122 
SCCF RECON,ioos:station:SCCF:13:1,2019-02-01T09:00:00Z,26.5255,-82.0032,2.09,16.25,1111122 
SCCF RECON,ioos:station:SCCF:13:1,2019-02-01T10:00:00Z,26.5255,-82.0032,2.03,14.87,1111122 
SCCF RECON,ioos:station:SCCF:13:1,2019-02-01T11:00:00Z,26.5255,-82.0032,1.987,14.6,1111122 
SCCF RECON,ioos:station:SCCF:13:1,2019-02-01T12:00:00Z,26.5255,-82.0032,2.03,13.53,1111122 
SCCF RECON,ioos:station:SCCF:13:1,2019-02-01T13:00:00Z,26.5255,-82.0032,2.13,12.74,1111122 
SCCF RECON,ioos:station:SCCF:13:1,2019-02-01T14:00:00Z,26.5255,-82.0032,2.22,12.7,1111122 
SCCF RECON,ioos:station:SCCF:13:1,2019-02-01T15:00:00Z,26.5255,-82.0032,2.3,15.96,1111122 
SCCF RECON,ioos:station:SCCF:13:1,2019-02-01T16:00:00Z,26.5255,-82.0032,2.366,20.05,1111122 
SCCF RECON,ioos:station:SCCF:13:1,2019-02-01T17:00:00Z,26.5255,-82.0032,2.41,24.73,1111122 
SCCF RECON,ioos:station:SCCF:13:1,2019-02-01T18:00:00Z,26.5255,-82.0032,2.438,27.26,1111122 
SCCF RECON,ioos:station:SCCF:13:1,2019-02-01T19:00:00Z,26.5255,-82.0032,2.449,27.83,1111122 
SCCF RECON,ioos:station:SCCF:13:1,2019-02-01T20:00:00Z,26.5255,-82.0032,2.4,27.4,1111122 
SCCF RECON,ioos:station:SCCF:13:1,2019-02-01T21:00:00Z,26.5255,-82.0032,2.364,27.41,1111122 
SCCF RECON,ioos:station:SCCF:13:1,2019-02-01T22:00:00Z,26.5255,-82.0032,2.37,27.81,1111122 
SCCF RECON,ioos:station:SCCF:13:1,2019-02-02T05:00:00Z,26.5255,-82.0032,2.6,29.29,1111122 
SCCF RECON,ioos:station:SCCF:13:1,2019-02-02T06:00:00Z,26.5255,-82.0032,2.54,29.5,1111122 
SCCF RECON,ioos:station:SCCF:13:1,2019-02-02T07:00:00Z,26.5255,-82.0032,2.43,27.61,1111122 
SCCF RECON,ioos:station:SCCF:13:1,2019-02-02T08:00:00Z,26.5255,-82.0032,2.32,20.29,1111122 
SCCF RECON,ioos:station:SCCF:13:1,2019-02-02T09:00:00Z,26.5255,-82.0032,2.23,19.71,1111122 
SCCF RECON,ioos:station:SCCF:13:1,2019-02-02T10:00:00Z,26.5255,-82.0032,2.138,17.66,1111122 
SCCF RECON,ioos:station:SCCF:13:1,2019-02-02T11:00:00Z,26.5255,-82.0032,2.06,17.68,1111122 
SCCF RECON,ioos:station:SCCF:13:1,2019-02-02T12:00:00Z,26.5255,-82.0032,2.03,17.0,1111122 
SCCF RECON,ioos:station:SCCF:13:1,2019-02-02T13:00:00Z,26.5255,-82.0032,2.08,16.12,1111122 
SCCF RECON,ioos:station:SCCF:13:1,2019-02-02T14:00:00Z,26.5255,-82.0032,2.21,15.06,1111122 
SCCF RECON,ioos:station:SCCF:13:1,2019-02-02T15:00:00Z,26.5255,-82.0032,2.298,15.32,1111122 
SCCF RECON,ioos:station:SCCF:13:1,2019-02-02T16:00:00Z,26.5255,-82.0032,2.351,17.33,1111122 
SCCF RECON,ioos:station:SCCF:13:1,2019-02-02T17:00:00Z,26.5255,-82.0032,2.42,20.53,1111122 
SCCF RECON,ioos:station:SCCF:13:1,2019-02-02T18:00:00Z,26.5255,-82.0032,2.46,25.11,1111122 
SCCF RECON,ioos:station:SCCF:13:1,2019-02-02T19:00:00Z,26.5255,-82.0032,2.452,26.8,1111122 
SCCF RECON,ioos:station:SCCF:13:1,2019-02-02T20:00:00Z,26.5255,-82.0032,2.41,26.57,1111122 
SCCF RECON,ioos:station:SCCF:13:1,2019-02-02T21:00:00Z,26.5255,-82.0032,2.369,27.3,1111122 
SCCF RECON,ioos:station:SCCF:13:1,2019-02-02T22:00:00Z,26.5255,-82.0032,2.35,27.42,1111122 
SCCF RECON,ioos:station:SCCF:13:1,2019-02-03T05:00:00Z,26.5255,-82.0032,2.65,28.59,1111122 
SCCF RECON,ioos:station:SCCF:13:1,2019-02-03T06:00:00Z,26.5255,-82.0032,2.62,28.86,1111122 
SCCF RECON,ioos:station:SCCF:13:1,2019-02-03T07:00:00Z,26.5255,-82.0032,2.52,29.27,1111122 
SCCF RECON,ioos:station:SCCF:13:1,2019-02-03T08:00:00Z,26.5255,-82.0032,2.39,26.91,1111122 
SCCF RECON,ioos:station:SCCF:13:1,2019-02-03T09:00:00Z,26.5255,-82.0032,2.281,22.86,1111122 
SCCF RECON,ioos:station:SCCF:13:1,2019-02-03T10:00:00Z,26.5255,-82.0032,2.2,21.47,1111122 
SCCF RECON,ioos:station:SCCF:13:1,2019-02-03T11:00:00Z,26.5255,-82.0032,2.11,18.96,1111122 
SCCF RECON,ioos:station:SCCF:13:1,2019-02-03T12:00:00Z,26.5255,-82.0032,2.05,19.0,1111122 
SCCF RECON,ioos:station:SCCF:13:1,2019-02-03T13:00:00Z,26.5255,-82.0032,2.03,18.24,1111122 
SCCF RECON,ioos:station:SCCF:13:1,2019-02-03T14:00:00Z,26.5255,-82.0032,2.13,16.95,1111122 
SCCF RECON,ioos:station:SCCF:13:1,2019-02-03T15:00:00Z,26.5255,-82.0032,2.26,15.96,1111122 
SCCF RECON,ioos:station:SCCF:13:1,2019-02-03T16:00:00Z,26.5255,-82.0032,2.33,17.22,1111122 
SCCF RECON,ioos:station:SCCF:13:1,2019-02-03T17:00:00Z,26.5255,-82.0032,2.38,19.07,1111122 
SCCF RECON,ioos:station:SCCF:13:1,2019-02-03T18:00:00Z,26.5255,-82.0032,2.432,22.89,1111122 
SCCF RECON,ioos:station:SCCF:13:1,2019-02-03T19:00:00Z,26.5255,-82.0032,2.436,26.03,1111122 
SCCF RECON,ioos:station:SCCF:13:1,2019-02-03T20:00:00Z,26.5255,-82.0032,2.39,26.89,1111122 
SCCF RECON,ioos:station:SCCF:13:1,2019-02-03T21:00:00Z,26.5255,-82.0032,2.34,27.26,1111122 
SCCF RECON,ioos:station:SCCF:13:1,2019-02-03T22:00:00Z,26.5255,-82.0032,2.291,26.02,1111122 
SCCF RECON,ioos:station:SCCF:13:1,2019-02-04T05:00:00Z,26.5255,-82.0032,2.628,27.61,1111122 
SCCF RECON,ioos:station:SCCF:13:1,2019-02-04T06:00:00Z,26.5255,-82.0032,2.627,28.24,1111122 
SCCF RECON,ioos:station:SCCF:13:1,2019-02-04T07:00:00Z,26.5255,-82.0032,2.55,28.61,1111122 
SCCF RECON,ioos:station:SCCF:13:1,2019-02-04T08:00:00Z,26.5255,-82.0032,2.436,28.94,1111122 
SCCF RECON,ioos:station:SCCF:13:1,2019-02-04T09:00:00Z,26.5255,-82.0032,2.32,26.31,1111122 
SCCF RECON,ioos:station:SCCF:13:1,2019-02-04T10:00:00Z,26.5255,-82.0032,2.236,20.62,1111122 
SCCF RECON,ioos:station:SCCF:13:1,2019-02-04T11:00:00Z,26.5255,-82.0032,2.152,18.77,1111122 
SCCF RECON,ioos:station:SCCF:13:1,2019-02-04T12:00:00Z,26.5255,-82.0032,2.072,18.07,1111122 
SCCF RECON,ioos:station:SCCF:13:1,2019-02-04T13:00:00Z,26.5255,-82.0032,2.024,17.63,1111122 
SCCF RECON,ioos:station:SCCF:13:1,2019-02-04T14:00:00Z,26.5255,-82.0032,2.05,16.17,1111122 
SCCF RECON,ioos:station:SCCF:13:1,2019-02-04T15:00:00Z,26.5255,-82.0032,2.176,14.74,1111122 
SCCF RECON,ioos:station:SCCF:13:1,2019-02-04T16:00:00Z,26.5255,-82.0032,2.29,14.39,1111122 
SCCF RECON,ioos:station:SCCF:13:1,2019-02-04T17:00:00Z,26.5255,-82.0032,2.36,17.38,1111122 
SCCF RECON,ioos:station:SCCF:13:1,2019-02-04T18:00:00Z,26.5255,-82.0032,2.4,20.56,1111122 
SCCF RECON,ioos:station:SCCF:13:1,2019-02-04T19:00:00Z,26.5255,-82.0032,2.426,23.62,1111122 
SCCF RECON,ioos:station:SCCF:13:1,2019-02-04T20:00:00Z,26.5255,-82.0032,2.409,25.96,1111122 
SCCF RECON,ioos:station:SCCF:13:1,2019-02-04T21:00:00Z,26.5255,-82.0032,2.35,26.61,1111122 
SCCF RECON,ioos:station:SCCF:13:1,2019-02-04T22:00:00Z,26.5255,-82.0032,2.316,26.89,1111122 
SCCF RECON,ioos:station:SCCF:13:1,2019-02-05T05:00:00Z,26.5255,-82.0032,2.599,26.05,1111122 
SCCF RECON,ioos:station:SCCF:13:1,2019-02-05T06:00:00Z,26.5255,-82.0032,2.63,27.5,1111122 
SCCF RECON,ioos:station:SCCF:13:1,2019-02-05T07:00:00Z,26.5255,-82.0032,2.595,27.7,1111122 
SCCF RECON,ioos:station:SCCF:13:1,2019-02-05T08:00:00Z,26.5255,-82.0032,2.47,28.89,1111122 
SCCF RECON,ioos:station:SCCF:13:1,2019-02-05T09:00:00Z,26.5255,-82.0032,2.341,26.37,1111122 
SCCF RECON,ioos:station:SCCF:13:1,2019-02-05T10:00:00Z,26.5255,-82.0032,2.26,22.28,1111122 
SCCF RECON,ioos:station:SCCF:13:1,2019-02-05T11:00:00Z,26.5255,-82.0032,2.18,19.55,1111122 
SCCF RECON,ioos:station:SCCF:13:1,2019-02-05T12:00:00Z,26.5255,-82.0032,2.1,17.08,1111122 
SCCF RECON,ioos:station:SCCF:13:1,2019-02-05T13:00:00Z,26.5255,-82.0032,2.035,16.92,1111122 
SCCF RECON,ioos:station:SCCF:13:1,2019-02-05T14:00:00Z,26.5255,-82.0032,2.02,15.85,1111122 
SCCF RECON,ioos:station:SCCF:13:1,2019-02-05T15:00:00Z,26.5255,-82.0032,2.13,14.92,1111122 
SCCF RECON,ioos:station:SCCF:13:1,2019-02-05T16:00:00Z,26.5255,-82.0032,2.27,14.19,1111122 
SCCF RECON,ioos:station:SCCF:13:1,2019-02-05T18:00:00Z,26.5255,-82.0032,2.399,19.62,1111122 
SCCF RECON,ioos:station:SCCF:13:1,2019-02-05T19:00:00Z,26.5255,-82.0032,2.45,23.15,1111122 
SCCF RECON,ioos:station:SCCF:13:1,2019-02-05T20:00:00Z,26.5255,-82.0032,2.45,25.62,1111122 
SCCF RECON,ioos:station:SCCF:13:1,2019-02-05T21:00:00Z,26.5255,-82.0032,2.39,26.11,1111122 
SCCF RECON,ioos:station:SCCF:13:1,2019-02-05T22:00:00Z,26.5255,-82.0032,2.313,26.47,1111122 
SCCF RECON,ioos:station:SCCF:13:1,2019-02-06T05:00:00Z,26.5255,-82.0032,2.58,25.26,1111122 
SCCF RECON,ioos:station:SCCF:13:1,2019-02-06T06:00:00Z,26.5255,-82.0032,2.62,27.31,1111122 
SCCF RECON,ioos:station:SCCF:13:1,2019-02-06T07:00:00Z,26.5255,-82.0032,2.635,28.39,1111122 
SCCF RECON,ioos:station:SCCF:13:1,2019-02-06T08:00:00Z,26.5255,-82.0032,2.56,28.53,1111122 
SCCF RECON,ioos:station:SCCF:13:1,2019-02-06T09:00:00Z,26.5255,-82.0032,2.443,29.05,1111122 
SCCF RECON,ioos:station:SCCF:13:1,2019-02-06T10:00:00Z,26.5255,-82.0032,2.33,26.39,1111122 
SCCF RECON,ioos:station:SCCF:13:1,2019-02-06T11:00:00Z,26.5255,-82.0032,2.24,20.81,1111122 
SCCF RECON,ioos:station:SCCF:13:1,2019-02-06T12:00:00Z,26.5255,-82.0032,2.166,18.9,1111122 
SCCF RECON,ioos:station:SCCF:13:1,2019-02-06T13:00:00Z,26.5255,-82.0032,2.088,18.03,1111122 
SCCF RECON,ioos:station:SCCF:13:1,2019-02-06T14:00:00Z,26.5255,-82.0032,2.04,17.35,1111122 
SCCF RECON,ioos:station:SCCF:13:1,2019-02-06T15:00:00Z,26.5255,-82.0032,2.08,16.33,1111122 
SCCF RECON,ioos:station:SCCF:13:1,2019-02-06T16:00:00Z,26.5255,-82.0032,2.218,15.29,1111122 
SCCF RECON,ioos:station:SCCF:13:1,2019-02-06T17:00:00Z,26.5255,-82.0032,2.32,15.59,1111122 
SCCF RECON,ioos:station:SCCF:13:1,2019-02-06T18:00:00Z,26.5255,-82.0032,2.37,18.56,1111122 
SCCF RECON,ioos:station:SCCF:13:1,2019-02-06T19:00:00Z,26.5255,-82.0032,2.42,21.73,1111122 
SCCF RECON,ioos:station:SCCF:13:1,2019-02-06T20:00:00Z,26.5255,-82.0032,2.463,25.02,1111122 
SCCF RECON,ioos:station:SCCF:13:1,2019-02-06T22:00:00Z,26.5255,-82.0032,2.39,26.87,1111122 
SCCF RECON,ioos:station:SCCF:13:1,2019-02-07T05:00:00Z,26.5255,-82.0032,2.54,24.69,1111122 
SCCF RECON,ioos:station:SCCF:13:1,2019-02-07T06:00:00Z,26.5255,-82.0032,2.58,26.51,1111122 
SCCF RECON,ioos:station:SCCF:13:1,2019-02-07T07:00:00Z,26.5255,-82.0032,2.62,27.82,1111122 
SCCF RECON,ioos:station:SCCF:13:1,2019-02-07T08:00:00Z,26.5255,-82.0032,2.584,28.64,1111122 
SCCF RECON,ioos:station:SCCF:13:1,2019-02-07T09:00:00Z,26.5255,-82.0032,2.49,29.42,1111122 
SCCF RECON,ioos:station:SCCF:13:1,2019-02-07T10:00:00Z,26.5255,-82.0032,2.37,27.94,1111122 
SCCF RECON,ioos:station:SCCF:13:1,2019-02-07T11:00:00Z,26.5255,-82.0032,2.27,23.71,1111122 
SCCF RECON,ioos:station:SCCF:13:1,2019-02-07T12:00:00Z,26.5255,-82.0032,2.2,21.06,1111122 
SCCF RECON,ioos:station:SCCF:13:1,2019-02-07T13:00:00Z,26.5255,-82.0032,2.13,20.28,1111122 
SCCF RECON,ioos:station:SCCF:13:1,2019-02-07T14:00:00Z,26.5255,-82.0032,2.067,18.72,1111122 
SCCF RECON,ioos:station:SCCF:13:1,2019-02-07T15:00:00Z,26.5255,-82.0032,2.047,17.5,1111122 
SCCF RECON,ioos:station:SCCF:13:1,2019-02-07T16:00:00Z,26.5255,-82.0032,2.15,16.42,1111122 
SCCF RECON,ioos:station:SCCF:13:1,2019-02-07T17:00:00Z,26.5255,-82.0032,2.283,16.01,1111122 
SCCF RECON,ioos:station:SCCF:13:1,2019-02-07T18:00:00Z,26.5255,-82.0032,2.357,18.89,1111122 
SCCF RECON,ioos:station:SCCF:13:1,2019-02-07T19:00:00Z,26.5255,-82.0032,2.395,21.27,1111122 
SCCF RECON,ioos:station:SCCF:13:1,2019-02-07T20:00:00Z,26.5255,-82.0032,2.44,24.49,1111122 
SCCF RECON,ioos:station:SCCF:13:1,2019-02-07T21:00:00Z,26.5255,-82.0032,2.443,26.98,1111122 
SCCF RECON,ioos:station:SCCF:13:1,2019-02-07T22:00:00Z,26.5255,-82.0032,2.404,27.34,1111122 
SCCF RECON,ioos:station:SCCF:13:1,2019-02-08T05:00:00Z,26.5255,-82.0032,2.497,24.07,1111122 
SCCF RECON,ioos:station:SCCF:13:1,2019-02-08T06:00:00Z,26.5255,-82.0032,2.57,26.33,1111122 
SCCF RECON,ioos:station:SCCF:13:1,2019-02-08T07:00:00Z,26.5255,-82.0032,2.609,27.79,1111122 
SCCF RECON,ioos:station:SCCF:13:1,2019-02-08T08:00:00Z,26.5255,-82.0032,2.61,28.9,1111122 
SCCF RECON,ioos:station:SCCF:13:1,2019-02-08T09:00:00Z,26.5255,-82.0032,2.55,29.31,1111122 
SCCF RECON,ioos:station:SCCF:13:1,2019-02-08T10:00:00Z,26.5255,-82.0032,2.455,29.96,1111122 
SCCF RECON,ioos:station:SCCF:13:1,2019-02-08T11:00:00Z,26.5255,-82.0032,2.348,27.82,1111122 
SCCF RECON,ioos:station:SCCF:13:1,2019-02-08T12:00:00Z,26.5255,-82.0032,2.27,22.76,1111122 
SCCF RECON,ioos:station:SCCF:13:1,2019-02-08T13:00:00Z,26.5255,-82.0032,2.202,20.54,1111122 
SCCF RECON,ioos:station:SCCF:13:1,2019-02-08T14:00:00Z,26.5255,-82.0032,2.14,18.94,1111122 
SCCF RECON,ioos:station:SCCF:13:1,2019-02-08T15:00:00Z,26.5255,-82.0032,2.099,18.4,1111122 
SCCF RECON,ioos:station:SCCF:13:1,2019-02-08T16:00:00Z,26.5255,-82.0032,2.125,17.31,1111122 
SCCF RECON,ioos:station:SCCF:13:1,2019-02-08T17:00:00Z,26.5255,-82.0032,2.25,16.51,1111122 
SCCF RECON,ioos:station:SCCF:13:1,2019-02-08T18:00:00Z,26.5255,-82.0032,2.357,17.16,1111122 
SCCF RECON,ioos:station:SCCF:13:1,2019-02-08T19:00:00Z,26.5255,-82.0032,2.408,20.31,1111122 
SCCF RECON,ioos:station:SCCF:13:1,2019-02-08T21:00:00Z,26.5255,-82.0032,2.44,26.15,1111122 
SCCF RECON,ioos:station:SCCF:13:1,2019-02-08T22:00:00Z,26.5255,-82.0032,2.39,26.97,1111122 
SCCF RECON,ioos:station:SCCF:13:1,2019-02-09T05:00:00Z,26.5255,-82.0032,2.31,15.65,1111122 
SCCF RECON,ioos:station:SCCF:13:1,2019-02-09T06:00:00Z,26.5255,-82.0032,2.38,21.19,1111122 
SCCF RECON,ioos:station:SCCF:13:1,2019-02-09T07:00:00Z,26.5255,-82.0032,2.43,23.29,1111122 
SCCF RECON,ioos:station:SCCF:13:1,2019-02-09T08:00:00Z,26.5255,-82.0032,2.455,24.98,1111122 
SCCF RECON,ioos:station:SCCF:13:1,2019-02-09T09:00:00Z,26.5255,-82.0032,2.46,26.29,1111122 
SCCF RECON,ioos:station:SCCF:13:1,2019-02-09T10:00:00Z,26.5255,-82.0032,2.39,27.49,1111122 
SCCF RECON,ioos:station:SCCF:13:1,2019-02-09T11:00:00Z,26.5255,-82.0032,2.301,26.37,1111122 
SCCF RECON,ioos:station:SCCF:13:1,2019-02-09T12:00:00Z,26.5255,-82.0032,2.23,22.38,1111122 
SCCF RECON,ioos:station:SCCF:13:1,2019-02-09T13:00:00Z,26.5255,-82.0032,2.171,17.82,1111122 
SCCF RECON,ioos:station:SCCF:13:1,2019-02-09T14:00:00Z,26.5255,-82.0032,2.11,16.84,1111122 
SCCF RECON,ioos:station:SCCF:13:1,2019-02-09T15:00:00Z,26.5255,-82.0032,2.059,15.82,1111122 
SCCF RECON,ioos:station:SCCF:13:1,2019-02-09T16:00:00Z,26.5255,-82.0032,2.05,14.63,1111122 
SCCF RECON,ioos:station:SCCF:13:1,2019-02-09T17:00:00Z,26.5255,-82.0032,2.13,14.55,1111122 
SCCF RECON,ioos:station:SCCF:13:1,2019-02-09T18:00:00Z,26.5255,-82.0032,2.223,14.47,1111122 
SCCF RECON,ioos:station:SCCF:13:1,2019-02-09T19:00:00Z,26.5255,-82.0032,2.31,17.47,1111122 
SCCF RECON,ioos:station:SCCF:13:1,2019-02-09T20:00:00Z,26.5255,-82.0032,2.374,19.96,1111122 
SCCF RECON,ioos:station:SCCF:13:1,2019-02-09T21:00:00Z,26.5255,-82.0032,2.401,23.25,1111122 
SCCF RECON,ioos:station:SCCF:13:1,2019-02-09T22:00:00Z,26.5255,-82.0032,2.391,26.55,1111122 
SCCF RECON,ioos:station:SCCF:13:1,2019-02-10T05:00:00Z,26.5255,-82.0032,2.15,15.56,1111122 
SCCF RECON,ioos:station:SCCF:13:1,2019-02-10T06:00:00Z,26.5255,-82.0032,2.243,15.68,1111122 
SCCF RECON,ioos:station:SCCF:13:1,2019-02-10T07:00:00Z,26.5255,-82.0032,2.32,20.99,1111122 
SCCF RECON,ioos:station:SCCF:13:1,2019-02-10T08:00:00Z,26.5255,-82.0032,2.37,23.48,1111122 
SCCF RECON,ioos:station:SCCF:13:1,2019-02-10T09:00:00Z,26.5255,-82.0032,2.414,25.39,1111122 
SCCF RECON,ioos:station:SCCF:13:1,2019-02-10T10:00:00Z,26.5255,-82.0032,2.4,26.69,1111122 
SCCF RECON,ioos:station:SCCF:13:1,2019-02-10T11:00:00Z,26.5255,-82.0032,2.32,28.03,1111122 
SCCF RECON,ioos:station:SCCF:13:1,2019-02-10T12:00:00Z,26.5255,-82.0032,2.27,27.72,1111122 
SCCF RECON,ioos:station:SCCF:13:1,2019-02-10T13:00:00Z,26.5255,-82.0032,2.205,22.8,1111122 
SCCF RECON,ioos:station:SCCF:13:1,2019-02-10T14:00:00Z,26.5255,-82.0032,2.149,18.1,1111122 
SCCF RECON,ioos:station:SCCF:13:1,2019-02-10T15:00:00Z,26.5255,-82.0032,2.087,16.23,1111122 
SCCF RECON,ioos:station:SCCF:13:1,2019-02-10T16:00:00Z,26.5255,-82.0032,2.07,15.77,1111122 
SCCF RECON,ioos:station:SCCF:13:1,2019-02-10T17:00:00Z,26.5255,-82.0032,2.139,14.8,1111122 
SCCF RECON,ioos:station:SCCF:13:1,2019-02-10T18:00:00Z,26.5255,-82.0032,2.26,14.94,1111122 
SCCF RECON,ioos:station:SCCF:13:1,2019-02-10T19:00:00Z,26.5255,-82.0032,2.35,21.15,1111122 
SCCF RECON,ioos:station:SCCF:13:1,2019-02-10T20:00:00Z,26.5255,-82.0032,2.419,25.05,1111122 
SCCF RECON,ioos:station:SCCF:13:1,2019-02-10T21:00:00Z,26.5255,-82.0032,2.476,28.15,1111122 
SCCF RECON,ioos:station:SCCF:13:1,2019-02-10T22:00:00Z,26.5255,-82.0032,2.529,29.07,1111122 
SCCF RECON,ioos:station:SCCF:13:1,2019-02-11T06:00:00Z,26.5255,-82.0032,2.27,19.07,1111122 
SCCF RECON,ioos:station:SCCF:13:1,2019-02-11T07:00:00Z,26.5255,-82.0032,2.35,19.98,1111122 
SCCF RECON,ioos:station:SCCF:13:1,2019-02-11T08:00:00Z,26.5255,-82.0032,2.406,24.04,1111122 
SCCF RECON,ioos:station:SCCF:13:1,2019-02-11T09:00:00Z,26.5255,-82.0032,2.45,26.03,1111122 
SCCF RECON,ioos:station:SCCF:13:1,2019-02-11T10:00:00Z,26.5255,-82.0032,2.47,27.44,1111122 
SCCF RECON,ioos:station:SCCF:13:1,2019-02-11T11:00:00Z,26.5255,-82.0032,2.47,28.13,1111122 
SCCF RECON,ioos:station:SCCF:13:1,2019-02-11T12:00:00Z,26.5255,-82.0032,2.449,29.04,1111122 
SCCF RECON,ioos:station:SCCF:13:1,2019-02-11T13:00:00Z,26.5255,-82.0032,2.38,28.99,1111122 
SCCF RECON,ioos:station:SCCF:13:1,2019-02-11T14:00:00Z,26.5255,-82.0032,2.31,27.11,1111122 
SCCF RECON,ioos:station:SCCF:13:1,2019-02-11T15:00:00Z,26.5255,-82.0032,2.258,21.26,1111122 
SCCF RECON,ioos:station:SCCF:13:1,2019-02-11T16:00:00Z,26.5255,-82.0032,2.21,19.8,1111122 
SCCF RECON,ioos:station:SCCF:13:1,2019-02-11T17:00:00Z,26.5255,-82.0032,2.22,19.24,1111122 
SCCF RECON,ioos:station:SCCF:13:1,2019-02-11T18:00:00Z,26.5255,-82.0032,2.282,18.18,1111122 
SCCF RECON,ioos:station:SCCF:13:1,2019-02-11T19:00:00Z,26.5255,-82.0032,2.357,20.56,1111122 
SCCF RECON,ioos:station:SCCF:13:1,2019-02-11T20:00:00Z,26.5255,-82.0032,2.42,24.7,1111122 
SCCF RECON,ioos:station:SCCF:13:1,2019-02-11T21:00:00Z,26.5255,-82.0032,2.48,27.81,1111122 
SCCF RECON,ioos:station:SCCF:13:1,2019-02-11T22:00:00Z,26.5255,-82.0032,2.54,29.95,1111122 
SCCF RECON,ioos:station:SCCF:13:1,2019-02-12T05:00:00Z,26.5255,-82.0032,2.181,20.78,1111122 
SCCF RECON,ioos:station:SCCF:13:1,2019-02-12T06:00:00Z,26.5255,-82.0032,2.188,18.99,1111122 
SCCF RECON,ioos:station:SCCF:13:1,2019-02-12T07:00:00Z,26.5255,-82.0032,2.24,18.21,1111122 
SCCF RECON,ioos:station:SCCF:13:1,2019-02-12T08:00:00Z,26.5255,-82.0032,2.309,18.55,1111122 
SCCF RECON,ioos:station:SCCF:13:1,2019-02-12T09:00:00Z,26.5255,-82.0032,2.36,23.17,1111122 
SCCF RECON,ioos:station:SCCF:13:1,2019-02-12T10:00:00Z,26.5255,-82.0032,2.4,25.27,1111122 
SCCF RECON,ioos:station:SCCF:13:1,2019-02-12T11:00:00Z,26.5255,-82.0032,2.45,27.74,1111122 
SCCF RECON,ioos:station:SCCF:13:1,2019-02-12T12:00:00Z,26.5255,-82.0032,2.47,29.22,1111122 
SCCF RECON,ioos:station:SCCF:13:1,2019-02-12T13:00:00Z,26.5255,-82.0032,2.47,30.12,1111122 
SCCF RECON,ioos:station:SCCF:13:1,2019-02-12T14:00:00Z,26.5255,-82.0032,2.44,30.31,1111122 
SCCF RECON,ioos:station:SCCF:13:1,2019-02-12T15:00:00Z,26.5255,-82.0032,2.41,30.58,1111122 
SCCF RECON,ioos:station:SCCF:13:1,2019-02-12T16:00:00Z,26.5255,-82.0032,2.38,30.09,1111122 
SCCF RECON,ioos:station:SCCF:13:1,2019-02-12T17:00:00Z,26.5255,-82.0032,2.376,28.86,1111122 
SCCF RECON,ioos:station:SCCF:13:1,2019-02-12T18:00:00Z,26.5255,-82.0032,2.4,28.52,1111122 
SCCF RECON,ioos:station:SCCF:13:1,2019-02-12T19:00:00Z,26.5255,-82.0032,2.44,29.16,1111122 
SCCF RECON,ioos:station:SCCF:13:1,2019-02-12T20:00:00Z,26.5255,-82.0032,2.494,29.88,1111122 
SCCF RECON,ioos:station:SCCF:13:1,2019-02-12T21:00:00Z,26.5255,-82.0032,2.552,30.88,1111122 
SCCF RECON,ioos:station:SCCF:13:1,2019-02-12T22:00:00Z,26.5255,-82.0032,2.593,31.47,1111122 
SCCF RECON,ioos:station:SCCF:13:1,2019-02-13T05:00:00Z,26.5255,-82.0032,2.263,27.33,1111122 
SCCF RECON,ioos:station:SCCF:13:1,2019-02-13T06:00:00Z,26.5255,-82.0032,2.18,24.98,1111122 
SCCF RECON,ioos:station:SCCF:13:1,2019-02-13T07:00:00Z,26.5255,-82.0032,2.16,23.36,1111122 
SCCF RECON,ioos:station:SCCF:13:1,2019-02-13T08:00:00Z,26.5255,-82.0032,2.18,22.06,1111122 
SCCF RECON,ioos:station:SCCF:13:1,2019-02-13T09:00:00Z,26.5255,-82.0032,2.19,21.5,1111122 
SCCF RECON,ioos:station:SCCF:13:1,2019-02-13T10:00:00Z,26.5255,-82.0032,2.18,20.27,1111122 
SCCF RECON,ioos:station:SCCF:13:1,2019-02-13T11:00:00Z,26.5255,-82.0032,2.18,19.12,1111122 
SCCF RECON,ioos:station:SCCF:13:1,2019-02-13T12:00:00Z,26.5255,-82.0032,2.18,18.19,1111122 
SCCF RECON,ioos:station:SCCF:13:1,2019-02-13T13:00:00Z,26.5255,-82.0032,2.103,17.42,1111122 
SCCF RECON,ioos:station:SCCF:13:1,2019-02-13T14:00:00Z,26.5255,-82.0032,2.11,16.86,1111122 
SCCF RECON,ioos:station:SCCF:13:1,2019-02-13T15:00:00Z,26.5255,-82.0032,2.119,16.62,1111122 
SCCF RECON,ioos:station:SCCF:13:1,2019-02-13T16:00:00Z,26.5255,-82.0032,2.058,16.33,1111122 
SCCF RECON,ioos:station:SCCF:13:1,2019-02-13T17:00:00Z,26.5255,-82.0032,2.04,15.42,1111122 
SCCF RECON,ioos:station:SCCF:13:1,2019-02-13T18:00:00Z,26.5255,-82.0032,2.05,14.87,1111122 
SCCF RECON,ioos:station:SCCF:13:1,2019-02-13T19:00:00Z,26.5255,-82.0032,2.07,14.66,1111122 
SCCF RECON,ioos:station:SCCF:13:1,2019-02-13T20:00:00Z,26.5255,-82.0032,2.06,14.52,1111122 
SCCF RECON,ioos:station:SCCF:13:1,2019-02-14T20:00:00Z,26.5255,-82.0032,2.251,25.89,1111122 
SCCF RECON,ioos:station:SCCF:13:1,2019-02-14T22:00:00Z,26.5255,-82.0032,2.404,27.07,1111122 
SCCF RECON,ioos:station:SCCF:13:1,2019-02-15T06:00:00Z,26.5255,-82.0032,2.24,24.94,1111122 
SCCF RECON,ioos:station:SCCF:13:1,2019-02-15T07:00:00Z,26.5255,-82.0032,2.156,21.6,1111122 
SCCF RECON,ioos:station:SCCF:13:1,2019-02-15T08:00:00Z,26.5255,-82.0032,2.069,18.17,1111122 
SCCF RECON,ioos:station:SCCF:13:1,2019-02-15T09:00:00Z,26.5255,-82.0032,2.0,18.63,1111122 
SCCF RECON,ioos:station:SCCF:13:1,2019-02-15T10:00:00Z,26.5255,-82.0032,1.98,17.41,1111122 
SCCF RECON,ioos:station:SCCF:13:1,2019-02-15T11:00:00Z,26.5255,-82.0032,2.04,16.33,1111122 
SCCF RECON,ioos:station:SCCF:13:1,2019-02-15T12:00:00Z,26.5255,-82.0032,2.14,15.6,1111122 
SCCF RECON,ioos:station:SCCF:13:1,2019-02-15T13:00:00Z,26.5255,-82.0032,2.233,16.26,1111122 
SCCF RECON,ioos:station:SCCF:13:1,2019-02-15T15:00:00Z,26.5255,-82.0032,2.36,23.37,1111122 
SCCF RECON,ioos:station:SCCF:13:1,2019-02-15T16:00:00Z,26.5255,-82.0032,2.36,25.79,1111122 
SCCF RECON,ioos:station:SCCF:13:1,2019-02-15T17:00:00Z,26.5255,-82.0032,2.37,26.76,1111122 
SCCF RECON,ioos:station:SCCF:13:1,2019-02-15T18:00:00Z,26.5255,-82.0032,2.34,27.5,1111122 
SCCF RECON,ioos:station:SCCF:13:1,2019-02-15T19:00:00Z,26.5255,-82.0032,2.322,27.61,1111122 
SCCF RECON,ioos:station:SCCF:13:1,2019-02-15T20:00:00Z,26.5255,-82.0032,2.345,27.43,1111122 
SCCF RECON,ioos:station:SCCF:13:1,2019-02-15T21:00:00Z,26.5255,-82.0032,2.364,27.6,1111122 
SCCF RECON,ioos:station:SCCF:13:1,2019-02-15T22:00:00Z,26.5255,-82.0032,2.409,26.43,1111122 
SCCF RECON,ioos:station:SCCF:13:1,2019-02-16T06:00:00Z,26.5255,-82.0032,2.35,27.44,1111122 
SCCF RECON,ioos:station:SCCF:13:1,2019-02-16T07:00:00Z,26.5255,-82.0032,2.24,25.05,1111122 
SCCF RECON,ioos:station:SCCF:13:1,2019-02-16T08:00:00Z,26.5255,-82.0032,2.15,23.68,1111122 
SCCF RECON,ioos:station:SCCF:13:1,2019-02-16T09:00:00Z,26.5255,-82.0032,2.06,21.7,1111122 
SCCF RECON,ioos:station:SCCF:13:1,2019-02-16T10:00:00Z,26.5255,-82.0032,2.0,21.14,1111122 
SCCF RECON,ioos:station:SCCF:13:1,2019-02-16T11:00:00Z,26.5255,-82.0032,1.997,20.12,1111122 
SCCF RECON,ioos:station:SCCF:13:1,2019-02-16T12:00:00Z,26.5255,-82.0032,2.11,18.51,1111122 
SCCF RECON,ioos:station:SCCF:13:1,2019-02-16T13:00:00Z,26.5255,-82.0032,2.22,17.28,1111122 
SCCF RECON,ioos:station:SCCF:13:1,2019-02-16T14:00:00Z,26.5255,-82.0032,2.308,19.2,1111122 
SCCF RECON,ioos:station:SCCF:13:1,2019-02-16T15:00:00Z,26.5255,-82.0032,2.36,21.02,1111122 
SCCF RECON,ioos:station:SCCF:13:1,2019-02-16T16:00:00Z,26.5255,-82.0032,2.416,24.18,1111122 
SCCF RECON,ioos:station:SCCF:13:1,2019-02-16T17:00:00Z,26.5255,-82.0032,2.469,26.97,1111122 
SCCF RECON,ioos:station:SCCF:13:1,2019-02-16T18:00:00Z,26.5255,-82.0032,2.466,27.87,1111122 